Location: Le Castellard
(44.1862°N, 6.1301°E)
Time: 06:20:08
(UTC+00:00)

CZ-4B R/B - Pass Details

Date: 18 January 2020
Orbit: 808 x 882 km, 99.1° (Epoch: 23 February)

Event Time Altitude Azimuth Distance (km) Brightness Sun altitude
Rises 05:06:21 0° 17° (NNE) 3,471 6.5 -21.1°
Reaches altitude 10° 05:08:47 10° 21° (NNE) 2,520 5.8 -20.7°
Maximum altitude 05:14:20 62° 102° (ESE) 957 3.7 -19.7°
Drops below altitude 10° 05:19:45 10° 183° (S) 2,455 5.7 -18.8°
Sets 05:22:06 0° 187° (S) 3,375 6.4 -18.3°
